User: anonymous   Login
Location: NJAA Observatory
(40.6819°N, 74.8979°W)
Time: 03:35:31
(UTC-05:00)
Language:

S-56A Canister/Altair - Orbit

View from above orbital plane
View from above orbital plane
View from above satellite
View from above satellite

Ground track
Ground track

The orbit data is extracted from the following two-line orbital elements,

1 00082U 61004B   14331.50356093  .00000116  00000-0  14146-3 0  7393
2 00082 038.8525 147.9597 1175452 014.7357 348.4736 12.25658694558817
Epoch (UTC): 27 November 2014 12:05:07
Eccentricity: 0.1175452
inclination: 38.8525°
perigee height: 634 km
apogee height: 2502 km
right ascension of ascending node: 147.9597°
argument of perigee: 14.7357°
revolutions per day: 12.25658694
mean anomaly at epoch: 348.4736°
orbit number at epoch: 55881

The dashed part of the orbit path shows where the satellite is in the earth's shadow,  

DLR